"read_dt","SO2 (ppb)","flags","PMT voltage (V)","lamp voltage (V)","lamp intensity (Hz)","internal temp (C)","react chamber temp (C)","sample flow (l/min)","pres (mmHg)","SO2 bkg (ppb)","SO2 coefficient"
2015-10-19 00:00:00,1977E-3,5C000400,-0724,0828,12198,030.4,045.5,0.252,756.7,01.16,0.508
2015-10-19 00:01:00,2004E-3,5C000400,-0724,0829,12206,030.3,045.5,0.251,756.7,01.16,0.508
2015-10-19 00:02:00,1904E-3,5C000400,-0724,0828,12226,030.3,045.5,0.252,756.7,01.16,0.508
2015-10-19 00:03:00,1875E-3,5C000400,-0724,0828,12282,030.4,045.5,0.252,756.7,01.16,0.508
2015-10-19 00:04:00,1895E-3,5C000400,-0724,0829,12293,030.4,045.5,0.252,756.7,01.16,0.508
2015-10-19 00:05:00,1878E-3,5C000400,-0724,0828,12178,030.4,045.5,0.252,756.7,01.16,0.508
2015-10-19 00:06:00,1900E-3,5C000400,-0724,0829,12125,030.4,045.5,0.252,756.7,01.16,0.508
2015-10-19 00:07:00,1976E-3,5C000400,-0724,0829,12323,030.4,045.5,0.252,756.7,01.16,0.508
2015-10-19 00:08:00,1872E-3,5C000400,-0724,0828,12104,030.4,045.5,0.252,756.7,01.16,0.508
2015-10-19 00:09:00,1933E-3,5C000400,-0724,0828,12254,030.4,045.5,0.252,756.7,01.16,0.508
2015-10-19 00:10:00,1957E-3,5C000400,-0724,0828,12258,030.3,045.5,0.252,756.7,01.16,0.508
2015-10-19 00:11:00,1852E-3,5C000400,-0724,0828,12250,030.3,045.5,0.252,756.7,01.16,0.508
2015-10-19 00:12:00,1987E-3,5C000400,-0724,0829,12316,030.3,045.5,0.252,756.7,01.16,0.508
2015-10-19 00:13:00,1936E-3,5C000400,-0724,0829,12297,030.3,045.5,0.252,756.8,01.16,0.508
2015-10-19 00:14:00,1855E-3,5C000400,-0724,0828,12160,030.3,045.5,0.252,756.8,01.16,0.508
2015-10-19 00:15:00,1789E-3,5C000400,-0724,0829,12141,030.3,045.5,0.252,756.8,01.16,0.508
2015-10-19 00:16:00,1904E-3,5C000400,-0724,0828,12190,030.3,045.5,0.252,756.8,01.16,0.508
2015-10-19 00:17:00,1853E-3,5C000400,-0724,0828,12298,030.3,045.5,0.252,756.8,01.16,0.508
2015-10-19 00:18:00,1814E-3,5C000400,-0724,0828,12213,030.3,045.5,0.252,756.8,01.16,0.508
2015-10-19 00:19:00,1948E-3,5C000400,-0724,0828,12168,030.3,045.5,0.252,756.8,01.16,0.508
2015-10-19 00:20:00,1831E-3,5C000400,-0724,0828,12229,030.4,045.5,0.252,756.8,01.16,0.508
2015-10-19 00:21:00,1899E-3,5C000400,-0724,0829,12287,030.4,045.5,0.252,756.8,01.16,0.508
2015-10-19 00:22:00,1804E-3,5C000400,-0724,0828,12148,030.4,045.5,0.252,756.8,01.16,0.508
2015-10-19 00:23:00,1915E-3,5C000400,-0724,0828,12214,030.4,045.5,0.252,756.8,01.16,0.508
2015-10-19 00:24:00,1926E-3,5C000400,-0724,0829,12062,030.4,045.5,0.252,756.8,01.16,0.508
2015-10-19 00:25:00,1933E-3,5C000400,-0724,0829,12074,030.4,045.5,0.252,756.8,01.16,0.508
2015-10-19 00:26:00,1820E-3,5C000400,-0724,0828,12190,030.5,045.5,0.252,756.8,01.16,0.508
2015-10-19 00:27:00,1941E-3,5C000400,-0724,0829,12092,030.5,045.5,0.252,756.8,01.16,0.508
2015-10-19 00:28:00,1951E-3,5C000400,-0724,0829,12171,030.5,045.5,0.252,756.8,01.16,0.508
2015-10-19 00:29:00,1833E-3,5C000400,-0724,0829,12193,030.4,045.5,0.252,756.8,01.16,0.508
2015-10-19 00:30:00,1756E-3,5C000400,-0724,0829,12301,030.5,045.5,0.252,756.8,01.16,0.508
2015-10-19 00:31:00,1830E-3,5C000400,-0724,0828,12193,030.4,045.5,0.252,756.8,01.16,0.508
2015-10-19 00:32:00,1797E-3,5C000400,-0724,0828,12109,030.4,045.5,0.252,756.8,01.16,0.508
2015-10-19 00:33:00,1903E-3,5C000400,-0724,0829,12228,030.4,045.5,0.252,756.8,01.16,0.508
2015-10-19 00:34:00,1939E-3,5C000400,-0724,0829,12136,030.4,045.5,0.252,756.8,01.16,0.508
2015-10-19 00:35:00,1831E-3,5C000400,-0724,0828,12300,030.3,045.5,0.252,756.8,01.16,0.508
2015-10-19 00:36:00,2053E-3,5C000400,-0724,0828,12169,030.3,045.5,0.252,756.8,01.16,0.508
2015-10-19 00:37:00,1895E-3,5C000400,-0724,0829,12249,030.3,045.5,0.252,756.9,01.16,0.508
2015-10-19 00:38:00,1871E-3,5C000400,-0724,0829,12157,030.3,045.5,0.252,756.9,01.16,0.508
2015-10-19 00:39:00,1855E-3,5C000400,-0724,0829,12193,030.3,045.5,0.252,756.8,01.16,0.508
2015-10-19 00:40:00,1915E-3,5C000400,-0724,0829,12244,030.3,045.5,0.252,756.8,01.16,0.508
2015-10-19 00:41:00,1984E-3,5C000400,-0724,0828,12187,030.3,045.5,0.252,756.8,01.16,0.508
2015-10-19 00:42:00,1821E-3,5C000400,-0724,0828,12274,030.4,045.5,0.252,756.8,01.16,0.508
2015-10-19 00:43:00,1809E-3,5C000400,-0724,0828,12243,030.4,045.5,0.252,756.8,01.16,0.508
2015-10-19 00:44:00,1742E-3,5C000400,-0724,0829,12187,030.4,045.5,0.252,756.8,01.16,0.508
2015-10-19 00:45:00,1955E-3,5C000400,-0724,0828,12050,030.4,045.5,0.252,756.8,01.16,0.508
2015-10-19 00:46:00,1940E-3,5C000400,-0724,0829,12102,030.4,045.5,0.252,756.8,01.16,0.508
2015-10-19 00:47:00,1943E-3,5C000400,-0724,0829,12262,030.4,045.5,0.252,756.7,01.16,0.508
2015-10-19 00:48:00,1840E-3,5C000400,-0724,0828,12149,030.4,045.5,0.252,756.8,01.16,0.508
2015-10-19 00:49:00,1904E-3,5C000400,-0724,0829,12107,030.5,045.5,0.252,756.8,01.16,0.508
2015-10-19 00:50:00,1838E-3,5C000400,-0724,0828,12151,030.4,045.5,0.252,756.8,01.16,0.508
2015-10-19 00:51:00,1999E-3,5C000400,-0724,0829,12110,030.4,045.5,0.252,756.8,01.16,0.508
2015-10-19 00:52:00,1887E-3,5C000400,-0724,0829,12200,030.4,045.5,0.252,756.8,01.16,0.508
2015-10-19 00:53:00,1925E-3,5C000400,-0724,0828,12257,030.4,045.5,0.252,756.8,01.16,0.508
2015-10-19 00:54:00,1895E-3,5C000400,-0724,0828,12315,030.4,045.5,0.252,756.8,01.16,0.508
2015-10-19 00:55:00,1918E-3,5C000400,-0724,0828,12279,030.3,045.5,0.252,756.8,01.16,0.508
2015-10-19 00:56:00,1833E-3,5C000400,-0724,0828,12208,030.4,045.5,0.252,756.7,01.16,0.508
2015-10-19 00:57:00,1803E-3,5C000400,-0724,0829,12338,030.3,045.5,0.252,756.7,01.16,0.508
2015-10-19 00:58:00,1874E-3,5C000400,-0724,0828,12359,030.2,045.5,0.252,756.7,01.16,0.508
2015-10-19 00:59:00,1968E-3,5C000400,-0724,0828,12264,030.2,045.5,0.252,756.7,01.16,0.508
2015-10-19 01:00:00,1858E-3,5C000400,-0724,0828,12208,030.2,045.5,0.252,756.8,01.16,0.508
2015-10-19 01:01:00,1882E-3,5C000400,-0724,0828,12209,030.2,045.5,0.252,756.8,01.16,0.508
2015-10-19 01:02:00,1926E-3,5C000400,-0724,0828,12192,030.2,045.5,0.252,756.7,01.16,0.508
2015-10-19 01:03:00,1955E-3,5C000400,-0724,0828,12193,030.2,045.5,0.252,756.7,01.16,0.508
2015-10-19 01:04:00,1854E-3,5C000400,-0724,0829,12152,030.2,045.5,0.252,756.7,01.16,0.508
2015-10-19 01:05:00,1861E-3,5C000400,-0724,0828,12190,030.2,045.5,0.252,756.7,01.16,0.508
2015-10-19 01:06:00,1824E-3,5C000400,-0724,0828,12226,030.3,045.5,0.252,756.7,01.16,0.508
2015-10-19 01:07:00,1777E-3,5C000400,-0724,0828,12226,030.2,045.5,0.252,756.7,01.16,0.508
2015-10-19 01:08:00,1851E-3,5C000400,-0724,0828,12231,030.3,045.5,0.252,756.7,01.16,0.508
2015-10-19 01:09:00,1941E-3,5C000400,-0724,0828,12171,030.3,045.5,0.252,756.7,01.16,0.508
2015-10-19 01:10:00,1924E-3,5C000400,-0724,0828,12108,030.3,045.5,0.252,756.7,01.16,0.508
2015-10-19 01:11:00,1888E-3,5C000400,-0724,0828,12309,030.4,045.5,0.252,756.7,01.16,0.508
2015-10-19 01:12:00,1852E-3,5C000400,-0724,0829,12263,030.3,045.5,0.252,756.8,01.16,0.508
2015-10-19 01:13:00,1927E-3,5C000400,-0724,0828,12120,030.4,045.5,0.252,756.7,01.16,0.508
2015-10-19 01:14:00,1851E-3,5C000400,-0724,0828,12093,030.4,045.5,0.252,756.7,01.16,0.508
2015-10-19 01:15:00,1992E-3,5C000400,-0724,0828,12312,030.4,045.5,0.252,756.7,01.16,0.508
2015-10-19 01:16:00,1868E-3,5C000400,-0724,0828,12218,030.4,045.5,0.252,756.7,01.16,0.508
2015-10-19 01:17:00,1964E-3,5C000400,-0724,0828,12273,030.3,045.5,0.252,756.8,01.16,0.508
2015-10-19 01:18:00,1778E-3,5C000400,-0724,0828,12230,030.3,045.5,0.252,756.7,01.16,0.508
2015-10-19 01:19:00,1797E-3,5C000400,-0724,0828,12113,030.3,045.5,0.252,756.7,01.16,0.508
2015-10-19 01:20:00,1783E-3,5C000400,-0724,0828,12185,030.3,045.5,0.252,756.7,01.16,0.508
2015-10-19 01:21:00,1868E-3,5C000400,-0724,0829,12181,030.3,045.5,0.252,756.7,01.16,0.508
2015-10-19 01:22:00,1918E-3,5C000400,-0724,0829,12291,030.3,045.5,0.252,756.7,01.16,0.508
2015-10-19 01:23:00,1875E-3,5C000400,-0724,0828,12233,030.3,045.5,0.252,756.7,01.16,0.508
2015-10-19 01:24:00,1819E-3,5C000400,-0724,0828,12265,030.3,045.5,0.252,756.7,01.16,0.508
2015-10-19 01:25:00,1696E-3,5C000400,-0724,0829,12226,030.4,045.5,0.252,756.7,01.16,0.508
2015-10-19 01:26:00,1899E-3,5C000400,-0724,0828,12259,030.4,045.5,0.252,756.7,01.16,0.508
2015-10-19 01:27:00,1758E-3,5C000400,-0724,0829,12253,030.4,045.5,0.252,756.7,01.16,0.508
2015-10-19 01:28:00,1840E-3,5C000400,-0724,0828,12103,030.4,045.5,0.252,756.7,01.16,0.508
2015-10-19 01:29:00,1862E-3,5C000400,-0724,0829,12251,030.4,045.5,0.252,756.7,01.16,0.508
2015-10-19 01:30:00,1763E-3,5C000400,-0724,0829,12240,030.4,045.5,0.252,756.7,01.16,0.508
2015-10-19 01:31:00,1897E-3,5C000400,-0724,0828,12157,030.4,045.5,0.252,756.7,01.16,0.508
2015-10-19 01:32:00,1931E-3,5C000400,-0724,0829,12173,030.4,045.5,0.252,756.7,01.16,0.508
2015-10-19 01:33:00,1853E-3,5C000400,-0724,0829,12262,030.4,045.5,0.252,756.7,01.16,0.508
2015-10-19 01:34:00,1852E-3,5C000400,-0724,0828,12198,030.4,045.5,0.252,756.7,01.16,0.508
2015-10-19 01:35:00,1932E-3,5C000400,-0724,0828,12216,030.5,045.5,0.252,756.7,01.16,0.508
2015-10-19 01:36:00,1825E-3,5C000400,-0724,0828,11999,030.5,045.5,0.252,756.7,01.16,0.508
2015-10-19 01:37:00,1943E-3,5C000400,-0724,0828,12253,030.5,045.5,0.252,756.7,01.16,0.508
2015-10-19 01:38:00,2026E-3,5C000400,-0724,0828,12294,030.4,045.5,0.252,756.7,01.16,0.508
2015-10-19 01:39:00,1970E-3,5C000400,-0724,0828,12194,030.4,045.5,0.252,756.7,01.16,0.508
2015-10-19 01:40:00,1905E-3,5C000400,-0724,0828,12298,030.4,045.5,0.252,756.8,01.16,0.508
2015-10-19 01:41:00,1895E-3,5C000400,-0724,0829,12242,030.4,045.5,0.252,756.7,01.16,0.508
2015-10-19 01:42:00,1977E-3,5C000400,-0724,0828,12240,030.4,045.5,0.252,756.7,01.16,0.508
2015-10-19 01:43:00,1945E-3,5C000400,-0724,0828,12220,030.4,045.5,0.252,756.7,01.16,0.508
2015-10-19 01:44:00,1838E-3,5C000400,-0724,0829,12196,030.3,045.5,0.252,756.7,01.16,0.508
2015-10-19 01:45:00,1938E-3,5C000400,-0724,0828,12280,030.3,045.5,0.252,756.7,01.16,0.508
2015-10-19 01:46:00,1897E-3,5C000400,-0724,0828,12151,030.3,045.5,0.252,756.7,01.16,0.508
2015-10-19 01:47:00,2047E-3,5C000400,-0724,0828,12191,030.3,045.5,0.252,756.7,01.16,0.508
2015-10-19 01:48:00,1867E-3,5C000400,-0724,0829,12230,030.3,045.5,0.252,756.7,01.16,0.508
2015-10-19 01:49:00,2003E-3,5C000400,-0724,0828,12151,030.3,045.5,0.252,756.7,01.16,0.508
2015-10-19 01:50:00,1938E-3,5C000400,-0724,0829,12215,030.2,045.5,0.252,756.7,01.16,0.508
2015-10-19 01:51:00,1942E-3,5C000400,-0724,0829,12182,030.2,045.5,0.252,756.7,01.16,0.508
2015-10-19 01:52:00,1714E-3,5C000400,-0724,0828,12192,030.2,045.5,0.252,756.7,01.16,0.508
2015-10-19 01:53:00,1863E-3,5C000400,-0724,0829,12195,030.2,045.5,0.252,756.7,01.16,0.508
2015-10-19 01:54:00,2007E-3,5C000400,-0724,0827,12060,030.2,045.5,0.252,756.7,01.16,0.508
2015-10-19 01:55:00,1879E-3,5C000400,-0724,0828,12219,030.2,045.5,0.252,756.7,01.16,0.508
2015-10-19 01:56:00,2069E-3,5C000400,-0724,0829,12234,030.2,045.5,0.252,756.7,01.16,0.508
2015-10-19 01:57:00,1990E-3,5C000400,-0724,0829,12247,030.2,045.5,0.252,756.7,01.16,0.508
2015-10-19 01:58:00,1771E-3,5C000400,-0724,0828,12316,030.2,045.5,0.252,756.7,01.16,0.508
2015-10-19 01:59:00,1822E-3,5C000400,-0724,0828,12177,030.2,045.5,0.252,756.7,01.16,0.508
2015-10-19 02:00:00,1909E-3,5C000400,-0724,0828,12205,030.2,045.5,0.252,756.8,01.16,0.508
2015-10-19 02:01:00,1929E-3,5C000400,-0724,0828,12203,030.2,045.5,0.252,756.7,01.16,0.508
2015-10-19 02:02:00,1871E-3,5C000400,-0724,0828,12086,030.3,045.5,0.252,756.8,01.16,0.508
2015-10-19 02:03:00,1889E-3,5C000400,-0724,0829,12161,030.2,045.5,0.252,756.8,01.16,0.508
2015-10-19 02:04:00,1865E-3,5C000400,-0724,0829,12280,030.3,045.5,0.252,756.8,01.16,0.508
2015-10-19 02:05:00,1894E-3,5C000400,-0724,0828,12188,030.3,045.5,0.252,756.8,01.16,0.508
2015-10-19 02:06:00,2104E-3,5C000400,-0724,0828,12230,030.3,045.5,0.252,756.8,01.16,0.508
2015-10-19 02:07:00,1875E-3,5C000400,-0724,0828,12110,030.3,045.5,0.252,756.8,01.16,0.508
2015-10-19 02:08:00,1871E-3,5C000400,-0724,0828,12285,030.3,045.5,0.252,756.8,01.16,0.508
2015-10-19 02:09:00,1866E-3,5C000400,-0724,0828,12181,030.3,045.5,0.252,756.8,01.16,0.508
2015-10-19 02:10:00,1745E-3,5C000400,-0724,0828,12246,030.4,045.5,0.252,756.8,01.16,0.508
2015-10-19 02:11:00,1913E-3,5C000400,-0724,0829,12299,030.4,045.5,0.252,756.8,01.16,0.508
2015-10-19 02:12:00,1975E-3,5C000400,-0724,0828,12101,030.3,045.5,0.252,756.8,01.16,0.508
2015-10-19 02:13:00,1961E-3,5C000400,-0724,0828,12188,030.4,045.5,0.252,756.8,01.16,0.508
2015-10-19 02:14:00,1746E-3,5C000400,-0724,0828,12310,030.3,045.5,0.252,756.8,01.16,0.508
2015-10-19 02:15:00,1893E-3,5C000400,-0724,0828,12289,030.3,045.5,0.252,756.8,01.16,0.508
2015-10-19 02:16:00,1962E-3,5C000400,-0724,0828,12268,030.3,045.5,0.252,756.8,01.16,0.508
2015-10-19 02:17:00,1823E-3,5C000400,-0724,0829,12325,030.3,045.5,0.252,756.8,01.16,0.508
2015-10-19 02:18:00,1892E-3,5C000400,-0724,0828,12121,030.3,045.5,0.252,756.8,01.16,0.508
2015-10-19 02:19:00,1880E-3,5C000400,-0724,0829,12274,030.2,045.5,0.252,756.8,01.16,0.508
2015-10-19 02:20:00,1921E-3,5C000400,-0724,0828,12204,030.2,045.5,0.252,756.8,01.16,0.508
2015-10-19 02:21:00,1883E-3,5C000400,-0724,0829,12233,030.2,045.5,0.252,756.8,01.16,0.508
2015-10-19 02:22:00,1816E-3,5C000400,-0724,0829,12210,030.3,045.5,0.252,756.8,01.16,0.508
2015-10-19 02:23:00,1934E-3,5C000400,-0724,0828,12177,030.3,045.5,0.252,756.8,01.16,0.508
2015-10-19 02:24:00,1949E-3,5C000400,-0724,0828,12267,030.3,045.5,0.252,756.8,01.16,0.508
2015-10-19 02:25:00,1923E-3,5C000400,-0724,0829,12304,030.3,045.5,0.252,756.8,01.16,0.508
2015-10-19 02:26:00,1885E-3,5C000400,-0724,0829,12297,030.3,045.5,0.252,756.8,01.16,0.508
2015-10-19 02:27:00,1902E-3,5C000400,-0724,0828,12158,030.2,045.5,0.252,756.8,01.16,0.508
2015-10-19 02:28:00,1913E-3,5C000400,-0724,0828,12115,030.2,045.5,0.252,756.8,01.16,0.508
2015-10-19 02:29:00,1803E-3,5C000400,-0724,0828,12195,030.2,045.5,0.252,756.8,01.16,0.508
2015-10-19 02:30:00,1956E-3,5C000400,-0724,0827,12252,030.1,045.5,0.252,756.8,01.16,0.508
2015-10-19 02:31:00,1869E-3,5C000400,-0724,0828,12193,030.0,045.5,0.252,756.8,01.16,0.508
2015-10-19 02:32:00,1906E-3,5C000400,-0724,0828,12106,030.0,045.5,0.252,756.8,01.16,0.508
2015-10-19 02:33:00,1914E-3,5C000400,-0724,0828,12215,029.9,045.5,0.252,756.8,01.16,0.508
2015-10-19 02:34:00,1966E-3,5C000400,-0724,0827,12303,029.9,045.5,0.252,756.8,01.16,0.508
2015-10-19 02:35:00,1816E-3,5C000400,-0724,0828,12274,029.9,045.5,0.252,756.8,01.16,0.508
2015-10-19 02:36:00,1946E-3,5C000400,-0724,0828,12193,029.9,045.5,0.252,756.8,01.16,0.508
2015-10-19 02:37:00,1822E-3,5C000400,-0724,0828,12212,029.9,045.5,0.252,756.8,01.16,0.508
2015-10-19 02:38:00,1887E-3,5C000400,-0724,0829,12274,029.9,045.5,0.252,756.8,01.16,0.508
2015-10-19 02:39:00,1824E-3,5C000400,-0724,0828,12018,029.9,045.5,0.252,756.8,01.16,0.508
2015-10-19 02:40:00,1933E-3,5C000400,-0724,0828,12188,029.9,045.5,0.252,756.8,01.16,0.508
2015-10-19 02:41:00,2063E-3,5C000400,-0724,0828,12376,029.8,045.5,0.252,756.8,01.16,0.508
2015-10-19 02:42:00,1948E-3,5C000400,-0724,0828,12204,029.7,045.5,0.252,756.8,01.16,0.508
2015-10-19 02:43:00,1891E-3,5C000400,-0724,0827,12254,029.7,045.5,0.252,756.8,01.16,0.508
2015-10-19 02:44:00,1779E-3,5C000400,-0724,0828,12132,029.7,045.5,0.252,756.8,01.16,0.508
2015-10-19 02:45:00,1893E-3,5C000400,-0724,0828,12149,029.6,045.5,0.253,756.8,01.16,0.508
2015-10-19 02:46:00,1859E-3,5C000400,-0724,0827,12170,029.6,045.5,0.253,756.8,01.16,0.508
2015-10-19 02:47:00,1859E-3,5C000400,-0724,0828,12268,029.6,045.5,0.253,756.8,01.16,0.508
2015-10-19 02:48:00,1839E-3,5C000400,-0724,0827,12115,029.5,045.5,0.253,756.8,01.16,0.508
2015-10-19 02:49:00,1907E-3,5C000400,-0724,0828,12347,029.6,045.5,0.253,756.8,01.16,0.508
2015-10-19 02:50:00,1953E-3,5C000400,-0724,0827,12274,029.6,045.5,0.253,756.8,01.16,0.508
2015-10-19 02:51:00,1934E-3,5C000400,-0724,0827,12129,029.6,045.5,0.253,756.8,01.16,0.508
2015-10-19 02:52:00,1859E-3,5C000400,-0724,0828,12302,029.6,045.5,0.253,756.8,01.16,0.508
2015-10-19 02:53:00,1956E-3,5C000400,-0724,0828,12167,029.6,045.5,0.253,756.8,01.16,0.508
2015-10-19 02:54:00,1991E-3,5C000400,-0724,0828,12188,029.6,045.5,0.254,756.8,01.16,0.508
2015-10-19 02:55:00,1945E-3,5C000400,-0724,0828,12105,029.5,045.5,0.254,756.8,01.16,0.508
2015-10-19 02:56:00,1923E-3,5C000400,-0724,0828,12187,029.5,045.5,0.254,756.8,01.16,0.508
2015-10-19 02:57:00,1962E-3,5C000400,-0724,0828,12159,029.4,045.5,0.254,756.8,01.16,0.508
2015-10-19 02:58:00,1893E-3,5C000400,-0724,0828,12097,029.4,045.5,0.254,756.8,01.16,0.508
2015-10-19 02:59:00,1842E-3,5C000400,-0724,0828,12409,029.4,045.5,0.254,756.8,01.16,0.508
2015-10-19 03:00:00,1864E-3,5C000400,-0724,0828,12175,029.3,045.5,0.254,756.8,01.16,0.508
2015-10-19 03:01:00,1943E-3,5C000400,-0724,0828,12142,029.3,045.5,0.254,756.8,01.16,0.508
2015-10-19 03:02:00,1898E-3,5C000400,-0724,0827,12332,029.3,045.5,0.254,756.8,01.16,0.508
2015-10-19 03:03:00,1767E-3,5C000400,-0724,0828,12187,029.3,045.5,0.254,756.8,01.16,0.508
2015-10-19 03:04:00,1930E-3,5C000400,-0724,0828,12123,029.3,045.5,0.254,756.8,01.16,0.508
2015-10-19 03:05:00,1938E-3,5C000400,-0724,0828,12176,029.3,045.5,0.254,756.8,01.16,0.508
2015-10-19 03:06:00,1887E-3,5C000400,-0724,0828,12102,029.3,045.5,0.254,756.8,01.16,0.508
2015-10-19 03:07:00,1828E-3,5C000400,-0724,0827,12223,029.2,045.5,0.254,756.8,01.16,0.508
2015-10-19 03:08:00,1816E-3,5C000400,-0724,0828,12220,029.2,045.5,0.253,756.8,01.16,0.508
2015-10-19 03:09:00,1908E-3,5C000400,-0724,0828,12246,029.1,045.5,0.253,756.8,01.16,0.508
2015-10-19 03:10:00,2032E-3,5C000400,-0724,0827,12283,029.1,045.5,0.254,756.8,01.16,0.508
2015-10-19 03:11:00,1933E-3,5C000400,-0724,0829,12199,029.1,045.5,0.254,756.8,01.16,0.508
2015-10-19 03:12:00,1938E-3,5C000400,-0724,0828,12314,029.1,045.5,0.254,756.8,01.16,0.508
2015-10-19 03:13:00,1823E-3,5C000400,-0724,0828,12121,029.1,045.5,0.254,756.8,01.16,0.508
2015-10-19 03:14:00,1842E-3,5C000400,-0724,0828,12290,029.1,045.5,0.254,756.8,01.16,0.508
2015-10-19 03:15:00,1895E-3,5C000400,-0724,0827,12196,029.1,045.5,0.254,756.8,01.16,0.508
2015-10-19 03:16:00,1910E-3,5C000400,-0724,0827,12160,029.1,045.5,0.254,756.8,01.16,0.508
2015-10-19 03:17:00,1771E-3,5C000400,-0724,0828,12270,029.0,045.5,0.254,756.8,01.16,0.508
2015-10-19 03:18:00,1942E-3,5C000400,-0724,0828,12309,029.0,045.5,0.254,756.8,01.16,0.508
2015-10-19 03:19:00,2014E-3,5C000400,-0724,0827,12223,029.1,045.5,0.254,756.8,01.16,0.508
2015-10-19 03:20:00,1882E-3,5C000400,-0724,0828,12263,029.1,045.5,0.254,756.8,01.16,0.508
2015-10-19 03:21:00,1901E-3,5C000400,-0724,0828,12116,029.0,045.5,0.254,756.8,01.16,0.508
2015-10-19 03:22:00,1993E-3,5C000400,-0724,0828,12237,029.0,045.5,0.254,756.8,01.16,0.508
2015-10-19 03:23:00,1848E-3,5C000400,-0724,0828,12262,028.9,045.5,0.254,756.9,01.16,0.508
2015-10-19 03:24:00,1817E-3,5C000400,-0724,0827,12198,029.0,045.5,0.254,756.9,01.16,0.508
2015-10-19 03:25:00,1985E-3,5C000400,-0724,0828,12231,029.0,045.5,0.254,756.8,01.16,0.508
2015-10-19 03:26:00,1893E-3,5C000400,-0724,0828,12285,029.0,045.5,0.254,756.9,01.16,0.508
2015-10-19 03:27:00,1829E-3,5C000400,-0724,0828,12208,028.9,045.5,0.254,756.9,01.16,0.508
2015-10-19 03:28:00,1860E-3,5C000400,-0724,0828,12158,028.9,045.5,0.254,756.9,01.16,0.508
2015-10-19 03:29:00,1799E-3,5C000400,-0724,0829,12232,028.8,045.5,0.254,756.9,01.16,0.508
2015-10-19 03:30:00,1859E-3,5C000400,-0724,0827,12290,028.8,045.5,0.254,756.9,01.16,0.508
2015-10-19 03:31:00,1846E-3,5C000400,-0724,0828,12162,028.8,045.5,0.254,756.9,01.16,0.508
2015-10-19 03:32:00,1874E-3,5C000400,-0724,0828,12213,028.8,045.5,0.254,756.9,01.16,0.508
2015-10-19 03:33:00,1717E-3,5C000400,-0724,0827,12240,028.8,045.5,0.254,756.9,01.16,0.508
2015-10-19 03:34:00,1915E-3,5C000400,-0724,0827,12243,028.8,045.5,0.254,756.9,01.16,0.508
2015-10-19 03:35:00,1849E-3,5C000400,-0724,0827,12194,028.8,045.5,0.254,756.9,01.16,0.508
2015-10-19 03:36:00,1939E-3,5C000400,-0724,0828,12367,028.8,045.5,0.255,756.9,01.16,0.508
2015-10-19 03:37:00,1927E-3,5C000400,-0724,0828,12089,028.8,045.4,0.255,756.9,01.16,0.508
2015-10-19 03:38:00,1755E-3,5C000400,-0724,0827,12297,028.7,045.4,0.255,756.9,01.16,0.508
2015-10-19 03:39:00,1758E-3,5C000400,-0724,0827,12229,028.8,045.5,0.255,756.9,01.16,0.508
2015-10-19 03:40:00,1923E-3,5C000400,-0724,0829,11981,028.9,045.5,0.255,756.9,01.16,0.508
2015-10-19 03:41:00,1903E-3,5C000400,-0724,0828,12119,028.9,045.5,0.255,756.9,01.16,0.508
2015-10-19 03:42:00,2077E-3,5C000400,-0724,0827,12231,028.9,045.5,0.255,756.9,01.16,0.508
2015-10-19 03:43:00,1905E-3,5C000400,-0724,0827,12226,028.7,045.5,0.255,757.0,01.16,0.508
2015-10-19 03:44:00,1858E-3,5C000400,-0724,0828,11886,028.8,045.5,0.255,757.0,01.16,0.508
2015-10-19 03:45:00,1859E-3,5C000400,-0724,0828,12283,028.7,045.5,0.255,757.0,01.16,0.508
2015-10-19 03:46:00,1847E-3,5C000400,-0724,0828,12278,028.8,045.5,0.255,757.0,01.16,0.508
2015-10-19 03:47:00,1940E-3,5C000400,-0724,0828,12059,028.7,045.5,0.255,757.0,01.16,0.508
2015-10-19 03:48:00,1862E-3,5C000400,-0724,0827,12261,028.7,045.4,0.255,757.0,01.16,0.508
2015-10-19 03:49:00,1962E-3,5C000400,-0724,0828,12188,028.7,045.4,0.255,757.0,01.16,0.508
2015-10-19 03:50:00,1842E-3,5C000400,-0724,0827,12282,028.7,045.5,0.255,757.0,01.16,0.508
2015-10-19 03:51:00,1779E-3,5C000400,-0724,0828,12276,028.6,045.5,0.255,757.0,01.16,0.508
2015-10-19 03:52:00,1974E-3,5C000400,-0724,0827,12361,028.7,045.5,0.255,757.0,01.16,0.508
2015-10-19 03:53:00,1808E-3,5C000400,-0724,0827,12253,028.7,045.5,0.255,757.0,01.16,0.508
2015-10-19 03:54:00,1966E-3,5C000400,-0724,0828,12180,028.6,045.4,0.255,757.0,01.16,0.508
2015-10-19 03:55:00,1944E-3,5C000400,-0724,0828,12178,028.7,045.5,0.254,757.0,01.16,0.508
2015-10-19 03:56:00,1964E-3,5C000400,-0724,0827,12184,028.6,045.5,0.255,756.9,01.16,0.508
2015-10-19 03:57:00,2006E-3,5C000400,-0724,0827,12201,028.6,045.4,0.255,757.0,01.16,0.508
2015-10-19 03:58:00,1826E-3,5C000400,-0724,0828,12442,028.6,045.4,0.255,757.0,01.16,0.508
2015-10-19 03:59:00,1910E-3,5C000400,-0724,0827,12138,028.6,045.5,0.255,757.0,01.16,0.508
2015-10-19 04:00:00,1936E-3,5C000400,-0724,0827,12316,028.5,045.5,0.255,757.1,01.16,0.508
2015-10-19 04:01:00,1903E-3,5C000400,-0724,0827,12211,028.6,045.5,0.255,757.1,01.16,0.508
2015-10-19 04:02:00,1948E-3,5C000400,-0724,0827,12188,028.5,045.5,0.255,757.1,01.16,0.508
2015-10-19 04:03:00,1942E-3,5C000400,-0724,0828,12176,028.5,045.5,0.255,757.1,01.16,0.508
2015-10-19 04:04:00,1883E-3,5C000400,-0724,0828,12303,028.5,045.5,0.255,757.1,01.16,0.508
2015-10-19 04:05:00,1874E-3,5C000400,-0724,0828,12255,028.5,045.5,0.255,757.2,01.16,0.508
2015-10-19 04:06:00,1795E-3,5C000400,-0724,0828,12334,028.5,045.5,0.255,757.1,01.16,0.508
2015-10-19 04:07:00,1831E-3,5C000400,-0724,0828,12103,028.5,045.5,0.255,757.2,01.16,0.508
2015-10-19 04:08:00,1822E-3,5C000400,-0724,0827,12218,028.5,045.5,0.255,757.2,01.16,0.508
2015-10-19 04:09:00,1737E-3,5C000400,-0724,0828,12232,028.5,045.5,0.255,757.2,01.16,0.508
2015-10-19 04:10:00,1996E-3,5C000400,-0724,0828,12239,028.4,045.4,0.255,757.2,01.16,0.508
2015-10-19 04:11:00,1860E-3,5C000400,-0724,0828,12157,028.5,045.4,0.255,757.2,01.16,0.508
2015-10-19 04:12:00,2013E-3,5C000400,-0724,0828,12281,028.5,045.5,0.255,757.2,01.16,0.508
2015-10-19 04:13:00,1866E-3,5C000400,-0724,0827,12148,028.4,045.5,0.255,757.2,01.16,0.508
2015-10-19 04:14:00,1802E-3,5C000400,-0724,0827,12256,028.4,045.5,0.255,757.2,01.16,0.508
2015-10-19 04:15:00,1978E-3,5C000400,-0724,0828,12309,028.4,045.5,0.255,757.2,01.16,0.508
2015-10-19 04:16:00,1803E-3,5C000400,-0724,0827,12162,028.5,045.5,0.255,757.2,01.16,0.508
2015-10-19 04:17:00,1845E-3,5C000400,-0724,0828,12244,028.4,045.5,0.255,757.2,01.16,0.508
2015-10-19 04:18:00,1885E-3,5C000400,-0724,0828,12243,028.4,045.4,0.255,757.2,01.16,0.508
2015-10-19 04:19:00,1790E-3,5C000400,-0724,0827,12221,028.4,045.5,0.255,757.2,01.16,0.508
2015-10-19 04:20:00,1891E-3,5C000400,-0724,0828,12068,028.3,045.5,0.255,757.2,01.16,0.508